Crestview, FL

4:38 PM CDT on June 23, 2017 (GMT -0500)
Sikes

Weather History for KCEW - September, 2013

Change the Weather History Date:

Saturday, September 21, 2013

  Actual Average Record
Temperature  
Mean Temperature 76 °F -  
Max Temperature 79 °F 88 °F 98 °F (1997)
Min Temperature 73 °F 64 °F 51 °F (1981)
Cooling Degree Days 11    
Growing Degree Days 26 (Base 50)    
Moisture  
Dew Point 73 °F    
Average Humidity 91    
Maximum Humidity 94    
Minimum Humidity 83    
Precipitation  
Precipitation 0.68 in - - ()
Sea Level Pressure  
Sea Level Pressure 29.81 in    
Wind  
Wind Speed 3 mph (SSW)    
Max Wind Speed 12 mph    
Max Gust Speed 21 mph    
Visibility 7 miles    
Events Fog , Rain , Thunderstorm    
Averages and records for this station are not official NWS values.
T = Trace of Precipitation, MM = Missing Value Source: NWS Daily Summary

Daily Weather History Graph

Daily Weather History Graph

Search for Another Location

Airport or City:

Trip Planner

Search our weather history database for the weather conditions in past years. The results will help you decide how hot, cold, wet, or windy it might be!

Date:

Astronomy

Sep. 21, 2013 Rise Set
Actual Time 6:33 AM CDT 6:43 PM CDT
Civil Twilight 6:09 AM CDT 7:07 PM CDT
Nautical Twilight 5:41 AM CDT 7:35 PM CDT
Astronomical Twilight 5:13 AM CDT 8:04 PM CDT
Moon 8:07 PM CDT (9/21) 8:39 AM CDT (9/21)
Length of Visible Light 12h 57m
Length of Day
12h 09m
Waning Gibbous, 94% of the Moon is Illuminated
Sep 21
Waning Gibbous
Sep 26
Last Quarter
Oct 4
New
Oct 11
First Quarter
Oct 18
Full

Hourly Weather History & Observations

Time (CDT) Temp. Dew Point Humidity Pressure Visibility Wind Dir Wind Speed Gust Speed Precip Events Conditions
12:53 AM 75.0 °F 72.0 °F 90% 29.88 in 10.0 mi Calm Calm - N/A   Clear
1:53 AM 75.0 °F 72.0 °F 90% 29.86 in 10.0 mi Calm Calm - N/A   Clear
2:53 AM 75.0 °F 72.0 °F 90% 29.85 in 9.0 mi Calm Calm - 0.00 in   Scattered Clouds
3:27 AM 75.2 °F 73.4 °F 94% 29.86 in 6.0 mi WSW 6.9 mph - 0.01 in Rain Light Rain
3:35 AM 75.2 °F 73.4 °F 94% 29.86 in 1.8 mi Calm Calm - 0.06 in Rain Heavy Rain
3:46 AM 75.2 °F 73.4 °F 94% 29.85 in 1.2 mi SE 8.1 mph - 0.18 in Rain Heavy Rain
3:53 AM 77.0 °F 73.9 °F 90% 29.83 in 4.0 mi SSE 3.5 mph - 0.18 in Rain Light Rain
4:53 AM 75.0 °F 73.0 °F 94% 29.82 in 6.0 mi ENE 3.5 mph - 0.02 in   Scattered Clouds
5:53 AM 75.0 °F 73.0 °F 94% 29.83 in 7.0 mi Calm Calm - N/A   Clear
6:53 AM 75.0 °F 73.0 °F 94% 29.82 in 4.0 mi East 3.5 mph - 0.00 in   Clear
7:27 AM 75.2 °F 73.4 °F 94% 29.84 in 2.0 mi Calm Calm - 0.02 in Rain Rain
7:53 AM 75.0 °F 73.0 °F 94% 29.84 in 1.8 mi WNW 5.8 mph - 0.04 in Rain Rain
8:01 AM 75.2 °F 73.4 °F 94% 29.86 in 1.0 mi West 5.8 mph - 0.05 in Rain Heavy Rain
8:06 AM 75.2 °F 73.4 °F 94% 29.86 in 0.5 mi SW 11.5 mph - 0.11 in Fog , Rain Heavy Rain
8:15 AM 75.2 °F 73.4 °F 94% 29.86 in 1.0 mi SSW 6.9 mph - 0.20 in Rain Heavy Rain
8:33 AM 75.2 °F 73.4 °F 94% 29.86 in 2.5 mi South 10.4 mph 20.7 mph 0.27 in Rain Heavy Rain
8:45 AM 75.2 °F 73.4 °F 94% 29.86 in 7.0 mi SSW 9.2 mph - 0.27 in Rain Light Rain
8:53 AM 75.0 °F 73.0 °F 94% 29.86 in 10.0 mi South 9.2 mph - 0.27 in Rain Light Rain
9:53 AM 75.9 °F 73.0 °F 91% 29.85 in 10.0 mi SSE 3.5 mph - 0.00 in   Scattered Clouds
10:53 AM 77.0 °F 73.9 °F 90% 29.86 in 6.0 mi South 4.6 mph - 0.02 in Rain Light Rain
11:53 AM 77.0 °F 72.0 °F 84% 29.83 in 10.0 mi Calm Calm - 0.00 in   Scattered Clouds
12:53 PM 78.1 °F 73.0 °F 84% 29.81 in 10.0 mi South 5.8 mph - N/A   Clear
1:53 PM 79.0 °F 73.9 °F 84% 29.79 in 10.0 mi Calm Calm - N/A Thunderstorm Clear
2:02 PM 78.8 °F 73.4 °F 83% 29.80 in 10.0 mi Calm Calm - N/A Thunderstorm Partly Cloudy
2:22 PM 78.8 °F 73.4 °F 83% 29.80 in 10.0 mi WNW 8.1 mph - 0.00 in Rain , Thunderstorm Light Thunderstorms and Rain
2:36 PM 75.2 °F 73.4 °F 94% 29.80 in 2.5 mi WNW 9.2 mph - 0.03 in Rain , Thunderstorm Thunderstorms and Rain
2:44 PM 75.2 °F 71.6 °F 89% 29.81 in 1.0 mi WSW 5.8 mph - 0.08 in Rain Heavy Rain
2:53 PM 75.0 °F 72.0 °F 90% 29.79 in 1.0 mi WSW 4.6 mph - 0.13 in Rain Heavy Rain
2:59 PM 75.2 °F 71.6 °F 89% 29.80 in 2.5 mi West 4.6 mph - 0.01 in Rain Rain
3:07 PM 75.2 °F 71.6 °F 89% 29.79 in 5.0 mi WNW 5.8 mph - 0.01 in Rain Light Rain
3:53 PM 77.0 °F 73.0 °F 88% 29.77 in 10.0 mi Calm Calm - 0.02 in Rain Light Rain
4:08 PM 77.0 °F 73.4 °F 89% 29.77 in 10.0 mi Calm Calm - 0.00 in Rain Light Rain
4:53 PM 78.1 °F 73.9 °F 87% 29.76 in 10.0 mi North 3.5 mph - 0.00 in   Scattered Clouds
5:53 PM 77.0 °F 73.9 °F 90% 29.76 in 10.0 mi Calm Calm - 0.00 in Rain Light Rain
6:11 PM 77.0 °F 73.4 °F 89% 29.77 in 10.0 mi ESE 3.5 mph - N/A   Scattered Clouds
6:53 PM 75.9 °F 73.9 °F 94% 29.77 in 10.0 mi Calm Calm - N/A   Scattered Clouds
7:04 PM 75.2 °F 73.4 °F 94% 29.77 in 10.0 mi Calm Calm - N/A   Mostly Cloudy
7:53 PM 75.0 °F 73.0 °F 94% 29.77 in 10.0 mi Calm Calm - N/A   Partly Cloudy
8:53 PM 75.0 °F 73.0 °F 94% 29.77 in 10.0 mi Calm Calm - N/A   Partly Cloudy
9:20 PM 75.2 °F 73.4 °F 94% 29.78 in 10.0 mi Calm Calm - 0.00 in Rain Light Rain
9:32 PM 75.2 °F 73.4 °F 94% 29.78 in 10.0 mi Calm Calm - 0.00 in Rain Light Rain
9:53 PM 75.0 °F 73.0 °F 94% 29.78 in 10.0 mi Calm Calm - 0.00 in Rain Light Rain
10:53 PM 73.9 °F 72.0 °F 93% 29.78 in 10.0 mi Calm Calm - 0.00 in Rain Light Rain
11:53 PM 73.9 °F 72.0 °F 93% 29.77 in 10.0 mi SSE 3.5 mph - 0.00 in Rain Light Rain